星链-37872(STARLINK-37872)

导读

目前公开可查询的信息中暂未收录STARLINK-37872(NORAD 69433)这颗卫星的具体发射参数、在轨状态及任务细节等专属信息。 星链是SpaceX开发的低轨互联网星座项目,NORAD编号由北美防空司令部为轨道物体统一分配,用于太空跟踪、避碰管理。截至2026年3月SpaceX已累计发射超1.16万颗星链卫星,约1万颗在轨运行,当前该星座正逐步将4400颗原550公里轨道的卫星调整至480公里轨道,以降低空间碎片风险。

基本信息
目录编号:
69433
目录名称:
STARLINK-37872
国际标识:
2026-126P
轨道中心:
EARTH
卫星名称:
星链-37872
卫星全名:
星链-37872(STARLINK-37872)
卫星状态:
在轨 (已飞行89 天)
发射日期:
2026-06-07 UTC
国别 :
美国 (US)
星等 :
--
轨道信息
数据来源 国际轨道数据
星历时间: 2026-09-04T00:01:57+0800
21小时前
查看轨道信息
半长轴: 6843.68km
偏心率: 0.0002151
轨道倾角: 97.285°
近地点辐角 89.852°
升交点赤经 108.122°
平近点角 270.297°
近地点: 464.07km
远地点: 467.016km
周期: 93.906分钟
每日圈数: 15.334453
详细信息
固有亮度:
5
最大亮度:
2.5
卫星平台:
Starlink V1.0
覆盖范围:
全球
运营商:
太空探索技术公司
运营商所在国:
美国
制造商(研发单位):
太空探索技术公司
制造商所在国:
美国
使用方式:
暂无
卫星简介
Starlink 计划是 SpaceX 推出的全球卫星互联网项目,通过发射低轨道卫星,为全球尤其是偏远地区提供高速、低延迟的互联网服务。自 2019 年起,Starlink 已部署数千颗卫星,旨在缩小全球数字鸿沟,推动互联网普及。该项目还为军事、航空等行业提供通信支持,带来广泛经济效益。
2D轨道图
3D轨道图
轨道高度分析图
轨道倾角分析图
轨道综合分析图
查看轨道综合分析图